This is the latest recevied weather packets stored in our database for station/object KW4UJ. If no packets are shown the sender has not sent any weather packets the latest 10 day(s).
| Time | Temp. | Humidity | Pressure | Rain* | Wind** | Luminosity | Snow |
|---|---|---|---|---|---|---|---|
| 1788097046 | 23.33° C | 91% | 1022.3 hPa | 0 mm | - | 99 W/m² | - |
| 1788096742 | 23.33° C | 92% | 1022.5 hPa | 0 mm | - | 131 W/m² | - |
| 1788096437 | 22.78° C | 92% | 1022.7 hPa | 0 mm | - | 79 W/m² | - |
| 1788096133 | 22.78° C | 92% | 1022.5 hPa | 0 mm | - | 105 W/m² | - |
| 1788095831 | 22.78° C | 92% | 1022.4 hPa | 0 mm | - | 72 W/m² | - |
| 1788095532 | 22.78° C | 92% | 1022.5 hPa | 0 mm | - | 83 W/m² | - |
| 1788095227 | 22.78° C | 92% | 1022.8 hPa | 0 mm | - | 87 W/m² | - |
| 1788094927 | 22.78° C | 92% | 1022.7 hPa | 0 mm | - | 91 W/m² | - |
| 1788094626 | 22.78° C | 93% | 1022.7 hPa | 0 mm | - | 85 W/m² | - |
| 1788094321 | 22.78° C | 93% | 1022.9 hPa | 0 mm | - | 91 W/m² | - |
| 1788094019 | 22.78° C | 93% | 1022.8 hPa | 0 mm | - | 84 W/m² | - |
| 1788093715 | 22.78° C | 93% | 1022.8 hPa | 0 mm | - | 63 W/m² | - |
| 1788093411 | 22.78° C | 93% | 1022.7 hPa | 0 mm | - | 60 W/m² | - |
| 1788093107 | 22.78° C | 93% | 1022.8 hPa | 0 mm | - | 60 W/m² | - |
| 1788092804 | 22.78° C | 93% | 1022.9 hPa | 0 mm | - | 52 W/m² | - |
| 1788092499 | 22.78° C | 93% | 1022.7 hPa | 0 mm | - | 76 W/m² | - |
| 1788092195 | 22.22° C | 94% | 1022.7 hPa | 0 mm | - | 89 W/m² | - |
| 1788091894 | 22.22° C | 94% | 1022.6 hPa | 0 mm | - | 48 W/m² | - |
| 1788091590 | 22.22° C | 94% | 1022.6 hPa | 0 mm | - | 73 W/m² | - |
| 1788091286 | 22.22° C | 94% | 1022.7 hPa | 0 mm | - | 52 W/m² | - |
| 1788090982 | 22.22° C | 94% | 1022.6 hPa | 0 mm | - | 61 W/m² | - |
| 1788090677 | 22.22° C | 94% | 1022.5 hPa | 0 mm | - | 50 W/m² | - |
| 1788090374 | 22.22° C | 94% | 1022.7 hPa | 0 mm | - | 37 W/m² | - |
| 1788090073 | 22.22° C | 94% | 1022.6 hPa | 0 mm | - | 30 W/m² | - |
| 1788089769 | 22.22° C | 94% | 1022.8 hPa | 0 mm | - | 27 W/m² | - |
* Rain latest hour (hover to see other rain measurements)
** Current wind speed in m/s (hover to see current wind gust speed)